Tracking 19847 objects as of 17-Sep-2019
HD Live streaming from Space Station
objects crossing your sky now

COSMOS 2333

Track COSMOS 2333 now!
10-day predictions
COSMOS 2333 is classified as:


NORAD ID: 24297
Int'l Code: 1996-051A
Perigee: 839.5 km
Apogee: 870.8 km
Inclination: 70.9 °
Period: 101.9 minutes
Semi major axis: 7226 km
RCS: 6.069 m2 (large)
Launch date: September 4, 1996
Source: Commonwealth of Independent States (former USSR) (CIS)
Launch site: TYURATAM MISSILE AND SPACE COMPLEX (TTMTR)
aabbcc
Your satellite tracking list
Your tracking list is empty




NASA's NSSDC Master Catalog

Two Line Element Set (TLE):
1 24297U 96051A   19258.91863880 -.00000305 +00000-0 -13644-3 0  9994
2 24297 070.9033 126.3469 0021679 047.8833 312.4126 14.13325642187845
Source of the keplerian elements: AFSPC